CZ-6A DEB, 61096

Orbit data source: Space-Track

CZ-6A DEB, 61096 is space debris in LEO originally from a launch on Tue, 06 Aug 2024 UTC launched from the Taiyaun Space Center, China (TSC). Debris objects in space refer to the collection of defunct objects orbiting the Earth. Examples of debris include non-operational satellites, rocket bodies, and fragments generated from explosions, collisions, or faulty payload assembly.

Loading next visibility...
Identifier
61096, 2024-140NN
Orbit
LEO
Country
Flag of CNCN / PRC
Related business
Manufacturer
SAST
Mission
Spacecraft
Bus & Motor
Unknown
Mass
Unknown
Launch date (UTC)
2024-08-06 (2 years ago)
Launch vehicle
Unknown
Launch site
Taiyaun Space Center, China (TSC)
Object type
Payload
Rocket body
Debris
Shape & HBR
Unknown shape, 0.1 m
Radar Cross Section
Small (<0.1 m²)

Expand to show TLE details & history
Last TLE update: 13 hours ago

TLE from 13 hours ago
0 CZ-6A DEB
1 61096U 24140NN  26118.41827573  .00003302  00000-0  68597-3 0  9994
2 61096  89.0502 280.4859 0100344  79.5112 281.7386 14.56736244 88329
Epoch: 2026-04-28T10:02Z
TLE epoch observation values (Epoch: 2026-04-28T10:02:19.023Z)
Latitude
-0°
Longitude
-86.48724°
Altitude
693.063 km
Speed
7.517 km/s
True Right ascension
18h 41m 56s
True Declination
0° 00' 00"
Sunlit
Object was in daylight at epoch
Visualization orbit readout
Latitude
Unknown
Longitude
Unknown
Altitude
Unknown
Speed
Unknown
Apparent Right ascension
Unknown
Apparent Declination
Unknown
Sunlit
N/A
Visualization observer readout
Local Sidereal Time
06:30:46
Azimuth
Unknown
Elevation
Unknown
Doppler factor
Unknown
Orbital elements
Apogee altitude
771.661 km
Perigee altitude
629.599 km
Semi-major axis
7,078.767 km
Eccentricity
0.01003
Inclination
89.0502°
RAAN
280.4859°
Arg. of periapsis
79.5112°
True anomaly
280.60998°
Mean anomaly
281.7386°
Eccentric anomaly
281.17457°
Mean motion
3.64424 °/min
Orbital period
98.79 mins
BSTAR
0.00068597
Loading maneuver chart data...
Computing Atmospheric mass density...
Loading historical data...
Loading historical data...
Loading historical data...
Loading historical data...
Loading historical data...
Loading historical data...
Loading historical data...

Documentation

Showing up to 5 results
|